Location: Nasgenstadt
(48.2786°N, 9.7553°E)
Time: 23:41:26
(UTC+02:00)

ISS - Visible Passes

Search period start: 24 July 2021 00:00
Search period end: 03 August 2021 00:00
Orbit: 419 x 421 km, 51.6° (Epoch: 24 July)

Date Brightness Start Highest point End Pass type
(mag) Time Alt. Az. Time Alt. Az. Time Alt. Az.
24 Jul -1.9 00:43:06 10° WNW 00:44:40 23° W 00:44:40 23° W visible
24 Jul -3.0 22:18:50 10° WNW 22:22:09 50° N 22:25:27 10° E visible
24 Jul -3.5 23:55:42 10° WNW 23:58:48 55° SW 23:58:48 55° SW visible
25 Jul -3.9 23:08:21 10° WNW 23:11:45 82° SSW 23:12:58 37° ESE visible
26 Jul -0.9 00:45:51 10° W 00:45:55 10° W 00:45:55 10° W visible
26 Jul -3.6 22:21:01 10° WNW 22:24:25 76° NNE 22:27:09 15° ESE visible
26 Jul -2.0 23:58:09 10° W 00:00:06 23° WSW 00:00:06 23° WSW visible
27 Jul -3.1 23:10:37 10° WNW 23:13:48 38° SSW 23:14:20 35° S visible
28 Jul -3.5 22:23:12 10° WNW 22:26:32 56° SSW 22:28:36 21° SE visible
29 Jul -3.7 21:35:50 10° WNW 21:39:13 81° SSW 21:42:36 10° ESE visible
29 Jul -1.8 23:13:20 10° W 23:15:38 17° SW 23:15:51 17° SW visible
30 Jul -2.2 22:25:36 10° W 22:28:27 25° SW 22:30:12 17° S visible
31 Jul -2.8 21:38:02 10° WNW 21:41:13 38° SSW 21:44:22 10° SE visible
01 Aug -1.1 22:29:11 10° WSW 22:30:08 11° SW 22:31:04 10° SSW visible
02 Aug -1.5 21:40:43 10° W 21:42:59 17° SW 21:45:14 10° S visible
